DO9LL-1 Weather Reports


Display with metric or nautical units.
time (UTC)temp
F
wind
direction
speed
MPH
gust
MPH
rain 1hr
in
rain 24hr
in
rain mn
in
humidity
%
barometer
mb
20260905144734 67 317 4.0 9.0 0.00 0.03 0.00 64 1021.1
20260905143731 67 321 4.0 8.0 0.00 0.04 0.00 65 1021.0
20260905142732 66 322 4.0 8.0 0.00 0.06 0.00 65 1020.9
20260905141724 68 294 4.0 10.0 0.00 0.09 0.00 63 1020.8
20260905140719 68 324 5.0 9.0 0.00 0.09 0.00 63 1020.7
20260905135716 68 317 4.0 8.0 0.00 0.09 0.00 64 1020.6
20260905134733 67 316 4.0 7.0 0.00 0.10 0.00 65 1020.5
20260905133729 66 314 4.0 9.0 0.00 0.10 0.00 67 1020.4
20260905132726 65 318 3.0 6.0 0.00 0.12 0.00 70 1020.3
20260905131723 65 313 3.0 6.0 0.00 0.12 0.00 69 1020.4
20260905130718 66 316 4.0 8.0 0.00 0.17 0.00 63 1020.2
20260905125735 68 266 5.0 11.0 0.00 0.19 0.00 57 1019.9
20260905124732 71 285 5.0 15.0 0.00 0.19 0.00 55 1019.8
20260905123728 70 275 5.0 10.0 0.00 0.20 0.00 55 1019.6
20260905122725 68 270 4.0 8.0 0.00 0.24 0.00 61 1019.7
20260905121721 69 303 5.0 10.0 0.00 0.28 0.00 62 1019.6
20260905120717 68 256 6.0 10.0 0.00 0.35 0.00 67 1019.5
20260905115734 66 239 6.0 14.0 0.00 0.35 0.00 67 1019.5
20260905114730 67 256 5.0 9.0 0.00 0.35 0.00 68 1019.4
20260905113727 67 256 5.0 9.0 0.00 0.35 0.00 69 1019.2
20260905112723 66 241 5.0 11.0 0.00 0.35 0.00 71 1019.3
20260905111720 66 275 4.0 11.0 0.00 0.35 0.00 71 1019.3
20260905110716 66 237 5.0 10.0 0.00 0.35 0.00 72 1019.1
20260905105733 65 271 4.0 9.0 0.00 0.35 0.00 75 1019.1
20260905104729 65 244 4.0 9.0 0.00 0.35 0.00 74 1018.8
20260905103726 66 264 5.0 11.0 0.00 0.35 0.00 72 1018.7
20260905102722 66 260 4.0 7.0 0.00 0.35 0.00 74 1018.7
20260905101718 65 253 4.0 10.0 0.00 0.35 0.00 75 1018.7
20260905100735 65 266 6.0 11.0 0.00 0.35 0.00 75 1018.5
20260905095733 65 248 4.0 8.0 0.00 0.35 0.00 76 1018.3
20260905094729 65 258 4.0 9.0 0.00 0.35 0.00 76 1018.4
20260905093725 65 274 5.0 11.0 0.00 0.35 0.00 75 1018.3
20260905092721 64 260 4.0 13.0 0.00 0.35 0.00 77 1018.2
20260905091717 64 246 5.0 10.0 0.00 0.35 0.00 77 1018.2
20260905090734 64 247 4.0 9.0 0.00 0.35 0.00 79 1018.1
20260905085730 64 240 5.0 10.0 0.00 0.35 0.00 78 1018.0
20260905084727 63 264 5.0 15.0 0.00 0.35 0.00 79 1018.0
20260905083723 64 253 5.0 13.0 0.00 0.35 0.00 79 1017.8
20260905082720 63 260 5.0 11.0 0.00 0.35 0.00 80 1017.7
20260905081717 63 251 5.0 9.0 0.00 0.35 0.00 81 1017.6
20260905080733 63 252 4.0 9.0 0.00 0.35 0.00 81 1017.4
20260905075730 62 252 4.0 7.0 0.00 0.35 0.00 82 1017.4
20260905074725 61 268 4.0 8.0 0.00 0.35 0.00 83 1017.3
20260905073722 61 261 3.0 8.0 0.00 0.35 0.00 84 1017.3
20260905072720 60 252 4.0 9.0 0.00 0.35 0.00 84 1017.1
20260905071735 60 258 3.0 6.0 0.00 0.35 0.00 85 1017.1
20260905070731 59 253 4.0 7.0 0.00 0.35 0.00 85 1017.0
20260905065727 59 270 3.0 7.0 0.00 0.35 0.00 85 1017.0
20260905064724 58 257 4.0 7.0 0.00 0.35 0.00 86 1016.9
20260905063720 58 242 2.0 6.0 0.00 0.35 0.00 87 1016.9
20260905062722 57 263 2.0 3.0 0.00 0.35 0.00 88 1016.7
20260905061733 57 258 3.0 6.0 0.00 0.35 0.00 88 1016.7
20260905060730 56 264 3.0 4.0 0.00 0.35 0.00 89 1016.6
20260905055728 56 248 2.0 4.0 0.00 0.35 0.00 89 1016.5
20260905054725 56 260 2.0 6.0 0.00 0.35 0.00 89 1016.3
20260905053719 56 254 2.0 4.0 0.00 0.35 0.00 89 1016.3
20260905052720 56 264 3.0 7.0 0.00 0.35 0.00 90 1016.1
20260905051733 55 257 2.0 4.0 0.00 0.35 0.00 90 1016.1
20260905050729 55 255 2.0 3.0 0.00 0.35 0.00 90 1016.1
20260905045725 55 249 2.0 3.0 0.00 0.35 0.00 90 1016.1
20260905044721 55 250 2.0 4.0 0.00 0.35 0.00 90 1016.0
20260905043718 55 255 3.0 6.0 0.00 0.35 0.00 91 1016.0
20260905042735 55 249 2.0 3.0 0.00 0.35 0.00 91 1015.9
20260905041731 55 261 1.0 2.0 0.00 0.35 0.00 91 1015.6
20260905040728 55 255 1.0 2.0 0.00 0.35 0.00 90 1015.5
20260905035724 55 254 1.0 3.0 0.00 0.35 0.00 90 1015.5
20260905034721 55 247 1.0 4.0 0.00 0.35 0.00 90 1015.5
20260905033717 56 260 2.0 3.0 0.00 0.35 0.00 89 1015.5
20260905032734 56 256 2.0 4.0 0.00 0.35 0.00 89 1015.4
20260905031731 56 256 1.0 3.0 0.00 0.35 0.00 89 1015.4
20260905030728 56 252 1.0 3.0 0.00 0.35 0.00 88 1015.4
20260905025725 56 249 2.0 4.0 0.00 0.35 0.00 89 1015.3
20260905024721 55 257 1.0 3.0 0.00 0.35 0.00 90 1015.2
20260905023717 55 258 1.0 3.0 0.00 0.35 0.00 90 1015.2
20260905022734 56 257 1.0 3.0 0.00 0.35 0.00 89 1015.2
20260905021731 56 267 2.0 4.0 0.00 0.35 0.00 89 1015.2
20260905020728 56 260 1.0 2.0 0.00 0.35 0.00 88 1015.1
20260905015724 57 255 1.0 2.0 0.00 0.35 0.00 87 1015.1
20260905014721 57 268 2.0 3.0 0.00 0.35 0.00 86 1015.0
20260905013718 58 261 2.0 3.0 0.00 0.35 0.00 85 1015.0
20260905012734 57 253 2.0 6.0 0.00 0.35 0.00 86 1014.9
20260905011730 58 245 2.0 3.0 0.00 0.35 0.00 86 1015.0
20260905010728 58 253 2.0 3.0 0.00 0.35 0.00 86 1014.9
20260905005725 57 244 1.0 3.0 0.00 0.35 0.00 87 1014.9
20260905004722 57 263 2.0 4.0 0.00 0.35 0.00 87 1015.0
20260905003719 57 264 1.0 3.0 0.00 0.35 0.00 87 1015.0
20260905002716 57 254 2.0 3.0 0.00 0.35 0.00 86 1014.9
20260905001733 57 273 1.0 2.0 0.00 0.35 0.00 86 1014.8
20260905000730 58 246 1.0 3.0 0.00 0.35 0.00 85 1014.7
20260904235727 58 251 2.0 4.0 0.00 0.35 0.00 85 1014.7
20260904234725 58 249 2.0 3.0 0.00 0.35 0.00 85 1014.5
20260904233721 58 257 1.0 3.0 0.00 0.35 0.00 85 1014.6
20260904232718 58 249 1.0 2.0 0.00 0.35 0.00 85 1014.5
20260904231715 58 258 1.0 4.0 0.00 0.35 0.00 84 1014.4
20260904230732 59 261 2.0 4.0 0.00 0.35 0.00 84 1014.4
20260904225729 59 246 2.0 4.0 0.00 0.35 0.00 83 1014.4
20260904224727 59 248 2.0 4.0 0.00 0.35 0.00 84 1014.2
20260904223724 59 245 2.0 4.0 0.00 0.35 0.00 84 1014.2
20260904222721 59 236 1.0 3.0 0.00 0.35 0.00 84 1014.1
20260904221718 59 252 2.0 3.0 0.00 0.35 0.00 84 1013.9
20260904220735 60 252 1.0 2.0 0.00 0.35 0.00 84 1013.8
20260904215732 60 242 1.0 2.0 0.00 0.35 0.35 83 1013.8
20260904214729 61 249 2.0 4.0 0.00 0.35 0.35 83 1013.8
20260904213726 60 247 3.0 4.0 0.00 0.35 0.35 84 1013.7
20260904212723 61 246 2.0 4.0 0.00 0.35 0.35 84 1013.7
20260904211720 61 254 2.0 6.0 0.00 0.35 0.35 85 1013.6
20260904210717 61 236 2.0 3.0 0.00 0.35 0.35 85 1013.5
20260904205735 61 253 2.0 6.0 0.00 0.35 0.35 85 1013.5
20260904204732 61 232 2.0 4.0 0.00 0.35 0.35 86 1013.3
20260904203729 61 240 2.0 4.0 0.00 0.35 0.35 86 1013.3
20260904202726 62 247 1.0 6.0 0.00 0.35 0.35 85 1013.3
20260904201723 62 272 1.0 4.0 0.00 0.35 0.35 84 1013.2
20260904200720 62 267 1.0 3.0 0.00 0.35 0.35 83 1013.2
20260904195717 62 256 2.0 4.0 0.00 0.35 0.35 83 1013.0
20260904194734 62 275 2.0 4.0 0.00 0.35 0.35 83 1013.0
20260904193731 62 267 2.0 7.0 0.00 0.35 0.35 83 1012.8
20260904192729 62 279 2.0 6.0 0.00 0.35 0.35 84 1012.7
20260904191727 62 247 2.0 6.0 0.00 0.35 0.35 83 1012.3
20260904190723 63 244 2.0 4.0 0.00 0.35 0.35 83 1012.3
20260904185720 63 255 2.0 7.0 0.00 0.35 0.35 82 1012.2
20260904184717 63 275 2.0 4.0 0.00 0.35 0.35 82 1011.8
20260904183734 63 275 3.0 9.0 0.00 0.35 0.35 82 1011.7
20260904182736 63 262 3.0 8.0 0.00 0.35 0.35 84 1011.6
20260904181728 63 260 3.0 11.0 0.00 0.35 0.35 85 1011.6
20260904180725 63 278 2.0 7.0 0.00 0.35 0.35 85 1011.4
20260904175722 63 278 2.0 4.0 0.00 0.35 0.35 85 1011.1
20260904174719 64 274 3.0 8.0 0.00 0.35 0.35 85 1011.2
20260904173716 64 290 3.0 6.0 0.00 0.35 0.35 85 1011.1
20260904172739 64 285 2.0 4.0 0.00 0.35 0.35 86 1011.1
20260904171730 64 273 3.0 6.0 0.00 0.35 0.35 86 1010.8
20260904170727 64 276 3.0 11.0 0.00 0.35 0.35 88 1010.8
20260904165724 64 248 2.0 6.0 0.00 0.35 0.35 89 1010.8
20260904164721 64 275 3.0 6.0 0.00 0.35 0.35 90 1010.6
20260904163719 64 265 3.0 7.0 0.00 0.35 0.35 91 1010.5
20260904162720 64 249 3.0 6.0 0.00 0.35 0.35 92 1010.5
20260904161733 64 259 4.0 7.0 0.00 0.35 0.35 92 1010.4
20260904160729 64 266 3.0 7.0 0.00 0.35 0.35 92 1010.5
20260904155726 64 264 4.0 9.0 0.00 0.35 0.35 92 1010.4
20260904154723 64 244 4.0 9.0 0.03 0.35 0.35 93 1010.3
20260904153720 63 238 4.0 8.0 0.04 0.35 0.35 93 1010.2
20260904152722 63 253 4.0 8.0 0.06 0.35 0.35 93 1010.3
20260904151734 63 248 5.0 10.0 0.09 0.35 0.35 94 1010.3
20260904150731 62 258 5.0 13.0 0.09 0.35 0.35 94 1010.0
20260904145728 62 244 5.0 10.0 0.09 0.35 0.35 93 1010.0